Time,TemperatureF,DewpointF,PressureIn,WindDirection,WindDirectionDegrees,WindSpeedMPH,WindSpeedGustMPH,Humidity,HourlyPrecipIn,Conditions,Clouds,dailyrainin,SolarRadiationWatts/m^2,SoftwareType,DateUTC
2013-03-20 00:00:00,31.0,17.9,30.02,West,269,10.0,13.0,58,0.00,,,0.00,0,Wunderground v.1.15,2013-03-20 04:00:00,
2013-03-20 00:02:00,31.0,17.9,30.01,West,281,11.0,22.0,58,0.00,,,0.00,0,Wunderground v.1.15,2013-03-20 04:02:00,
2013-03-20 00:03:00,30.9,17.8,30.02,West,265,11.0,22.0,58,0.00,,,0.00,0,Wunderground v.1.15,2013-03-20 04:03:00,
2013-03-20 00:04:00,30.9,17.8,30.02,West,267,11.0,22.0,58,0.00,,,0.00,0,Wunderground v.1.15,2013-03-20 04:04:00,
2013-03-20 00:09:00,30.8,17.0,30.02,West,272,11.0,-999.0,58,-99.99,,,0.00,,weatherlink.com 1.10,2013-03-20 04:09:00,
2013-03-20 00:15:00,30.6,17.6,30.02,West,267,11.0,22.0,58,0.00,,,0.00,0,Wunderground v.1.15,2013-03-20 04:15:00,
2013-03-20 00:21:00,30.6,18.0,30.02,WNW,292,10.0,22.0,59,0.00,,,0.00,0,Wunderground v.1.15,2013-03-20 04:21:00,
2013-03-20 00:27:00,30.3,17.7,30.02,West,261,10.0,22.0,59,0.00,,,0.00,0,Wunderground v.1.15,2013-03-20 04:27:00,
2013-03-20 00:33:00,30.2,17.6,30.02,WNW,286,10.0,22.0,59,0.00,,,0.00,0,Wunderground v.1.15,2013-03-20 04:33:00,
2013-03-20 00:38:00,30.1,17.5,30.02,West,267,9.0,22.0,59,0.00,,,0.00,0,Wunderground v.1.15,2013-03-20 04:38:00,
2013-03-20 00:44:00,30.0,17.0,30.01,West,280,9.0,22.0,58,0.00,,,0.00,0,Wunderground v.1.15,2013-03-20 04:44:00,
2013-03-20 00:50:00,29.8,16.8,30.01,West,281,9.0,22.0,58,0.00,,,0.00,0,Wunderground v.1.15,2013-03-20 04:50:00,
2013-03-20 00:56:00,29.8,16.8,30.01,West,268,8.0,22.0,58,0.00,,,0.00,0,Wunderground v.1.15,2013-03-20 04:56:00,
2013-03-20 01:02:00,29.6,16.6,30.01,West,267,8.0,20.0,58,0.00,,,0.00,0,Wunderground v.1.15,2013-03-20 05:02:00,
2013-03-20 01:08:00,29.5,16.5,30.01,WSW,248,8.0,20.0,58,0.00,,,0.00,0,Wunderground v.1.15,2013-03-20 05:08:00,
2013-03-20 01:13:00,29.4,16.8,30.01,West,261,7.0,20.0,59,0.00,,,0.00,0,Wunderground v.1.15,2013-03-20 05:13:00,
2013-03-20 01:19:00,29.3,16.7,30.01,WSW,257,8.0,20.0,59,0.00,,,0.00,0,Wunderground v.1.15,2013-03-20 05:19:00,
2013-03-20 01:25:00,29.2,16.2,30.01,West,261,9.0,20.0,58,0.00,,,0.00,0,Wunderground v.1.15,2013-03-20 05:25:00,
2013-03-20 01:32:00,29.1,16.5,30.01,WSW,245,9.0,20.0,59,0.00,,,0.00,0,Wunderground v.1.15,2013-03-20 05:32:00,
2013-03-20 01:38:00,29.0,16.4,30.01,WSW,245,9.0,20.0,59,0.00,,,0.00,0,Wunderground v.1.15,2013-03-20 05:38:00,
2013-03-20 01:43:00,28.9,16.4,30.01,West,265,9.0,20.0,59,0.00,,,0.00,0,Wunderground v.1.15,2013-03-20 05:43:00,
2013-03-20 01:49:00,28.8,15.9,30.01,WSW,254,9.0,20.0,58,0.00,,,0.00,0,Wunderground v.1.15,2013-03-20 05:49:00,
2013-03-20 01:55:00,28.7,16.2,30.01,West,267,8.0,20.0,59,0.00,,,0.00,0,Wunderground v.1.15,2013-03-20 05:55:00,
2013-03-20 02:00:00,28.5,16.0,30.01,West,273,8.0,8.0,59,0.00,,,0.00,0,Wunderground v.1.15,2013-03-20 06:00:00,
2013-03-20 02:06:00,28.5,16.0,30.01,West,260,9.0,16.0,59,0.00,,,0.00,0,Wunderground v.1.15,2013-03-20 06:06:00,
2013-03-20 02:12:00,28.5,16.0,30.00,West,269,9.0,16.0,59,0.00,,,0.00,0,Wunderground v.1.15,2013-03-20 06:12:00,
2013-03-20 02:17:00,28.4,15.5,30.00,West,275,10.0,16.0,58,0.00,,,0.00,0,Wunderground v.1.15,2013-03-20 06:17:00,
2013-03-20 02:23:00,28.3,15.0,30.01,West,265,11.0,-999.0,59,-99.99,,,0.00,,weatherlink.com 1.10,2013-03-20 06:23:00,
2013-03-20 02:28:00,28.2,15.3,30.01,WNW,284,8.0,16.0,58,0.00,,,0.00,0,Wunderground v.1.15,2013-03-20 06:28:00,
2013-03-20 02:33:00,28.1,15.2,30.00,WNW,296,9.0,16.0,58,0.00,,,0.00,0,Wunderground v.1.15,2013-03-20 06:33:00,
2013-03-20 02:39:00,28.1,15.0,30.00,West,275,10.0,-999.0,58,-99.99,,,0.00,,weatherlink.com 1.10,2013-03-20 06:39:00,
2013-03-20 02:44:00,27.9,15.0,30.00,West,275,8.0,16.0,58,0.00,,,0.00,0,Wunderground v.1.15,2013-03-20 06:44:00,
2013-03-20 02:49:00,27.9,15.0,30.00,West,277,9.0,16.0,58,0.00,,,0.00,0,Wunderground v.1.15,2013-03-20 06:49:00,
2013-03-20 02:54:00,27.8,15.3,30.00,West,273,9.0,16.0,59,0.00,,,0.00,0,Wunderground v.1.15,2013-03-20 06:54:00,
2013-03-20 03:00:00,27.8,15.3,30.00,West,266,8.0,11.0,59,0.00,,,0.00,0,Wunderground v.1.15,2013-03-20 07:00:00,
2013-03-20 03:06:00,27.6,15.1,30.00,WSW,256,8.0,19.0,59,0.00,,,0.00,0,Wunderground v.1.15,2013-03-20 07:06:00,
2013-03-20 03:12:00,27.5,15.4,30.00,WSW,240,6.0,19.0,60,0.00,,,0.00,0,Wunderground v.1.15,2013-03-20 07:12:00,
2013-03-20 03:18:00,27.3,15.2,30.00,West,271,5.0,19.0,60,0.00,,,0.00,0,Wunderground v.1.15,2013-03-20 07:18:00,
2013-03-20 03:24:00,27.3,15.0,29.99,SW,226,6.0,-999.0,60,-99.99,,,0.00,,weatherlink.com 1.10,2013-03-20 07:24:00,
2013-03-20 03:29:00,27.2,15.1,29.99,WSW,249,6.0,19.0,60,0.00,,,0.00,0,Wunderground v.1.15,2013-03-20 07:29:00,
2013-03-20 03:35:00,27.1,15.4,29.99,WSW,248,6.0,19.0,61,0.00,,,0.00,0,Wunderground v.1.15,2013-03-20 07:35:00,
2013-03-20 03:41:00,26.9,15.2,29.98,WSW,257,6.0,9.0,61,0.00,,,0.00,0,Wunderground v.1.15,2013-03-20 07:41:00,
2013-03-20 03:47:00,26.9,15.6,29.99,WSW,245,5.0,19.0,62,0.00,,,0.00,0,Wunderground v.1.15,2013-03-20 07:47:00,
2013-03-20 03:52:00,26.8,15.5,29.98,WNW,284,6.0,19.0,62,0.00,,,0.00,0,Wunderground v.1.15,2013-03-20 07:52:00,
2013-03-20 03:58:00,26.7,15.4,29.98,SW,229,6.0,19.0,62,0.00,,,0.00,0,Wunderground v.1.15,2013-03-20 07:58:00,
2013-03-20 04:03:00,26.6,15.3,29.97,West,272,6.0,15.0,62,0.00,,,0.00,0,Wunderground v.1.15,2013-03-20 08:03:00,
2013-03-20 04:09:00,26.5,15.2,29.97,WNW,290,5.0,15.0,62,0.00,,,0.00,0,Wunderground v.1.15,2013-03-20 08:09:00,
2013-03-20 04:14:00,26.4,15.5,29.97,West,270,4.0,15.0,63,0.00,,,0.00,0,Wunderground v.1.15,2013-03-20 08:14:00,
2013-03-20 04:19:00,26.4,15.5,29.96,WNW,283,5.0,15.0,63,0.00,,,0.00,0,Wunderground v.1.15,2013-03-20 08:19:00,
2013-03-20 04:25:00,26.3,15.4,29.96,West,259,5.0,15.0,63,0.00,,,0.00,0,Wunderground v.1.15,2013-03-20 08:25:00,
2013-03-20 04:31:00,26.1,15.2,29.96,West,273,4.0,15.0,63,0.00,,,0.00,0,Wunderground v.1.15,2013-03-20 08:31:00,
2013-03-20 04:37:00,26.0,15.5,29.97,West,265,4.0,15.0,64,0.00,,,0.00,0,Wunderground v.1.15,2013-03-20 08:37:00,
2013-03-20 04:43:00,25.9,15.7,29.97,West,281,4.0,15.0,65,0.00,,,0.00,0,Wunderground v.1.15,2013-03-20 08:43:00,
2013-03-20 04:49:00,25.8,15.6,29.98,West,267,4.0,15.0,65,0.00,,,0.00,0,Wunderground v.1.15,2013-03-20 08:49:00,
2013-03-20 04:55:00,25.7,15.9,29.98,West,259,4.0,15.0,66,0.00,,,0.00,0,Wunderground v.1.15,2013-03-20 08:55:00,
2013-03-20 05:00:00,25.7,15.9,29.97,WSW,242,4.0,8.0,66,0.00,,,0.00,0,Wunderground v.1.15,2013-03-20 09:00:00,
2013-03-20 05:06:00,25.7,15.9,29.98,West,273,4.0,12.0,66,0.00,,,0.00,0,Wunderground v.1.15,2013-03-20 09:06:00,
2013-03-20 05:12:00,25.6,16.2,29.97,West,263,4.0,12.0,67,0.00,,,0.00,0,Wunderground v.1.15,2013-03-20 09:12:00,
2013-03-20 05:17:00,25.6,16.2,29.97,West,273,4.0,12.0,67,0.00,,,0.00,0,Wunderground v.1.15,2013-03-20 09:17:00,
2013-03-20 05:23:00,25.6,16.0,29.97,WNW,288,3.0,-999.0,67,-99.99,,,0.00,,weatherlink.com 1.10,2013-03-20 09:23:00,
2013-03-20 05:28:00,25.6,16.2,29.97,West,267,3.0,12.0,67,0.00,,,0.00,0,Wunderground v.1.15,2013-03-20 09:28:00,
2013-03-20 05:34:00,25.6,16.2,29.97,West,268,3.0,12.0,67,0.00,,,0.00,0,Wunderground v.1.15,2013-03-20 09:34:00,
2013-03-20 05:40:00,25.7,16.3,29.97,West,265,4.0,4.0,67,0.00,,,0.00,0,Wunderground v.1.15,2013-03-20 09:40:00,
2013-03-20 05:46:00,25.8,16.3,29.97,WSW,258,4.0,12.0,67,0.00,,,0.00,0,Wunderground v.1.15,2013-03-20 09:46:00,
2013-03-20 05:52:00,25.8,16.0,29.97,WNW,291,3.0,-999.0,67,-99.99,,,0.00,,weatherlink.com 1.10,2013-03-20 09:52:00,
2013-03-20 05:58:00,25.9,16.4,29.97,WNW,284,5.0,12.0,67,0.00,,,0.00,0,Wunderground v.1.15,2013-03-20 09:58:00,
2013-03-20 06:04:00,25.9,16.8,29.97,West,271,6.0,12.0,68,0.00,,,0.00,0,Wunderground v.1.15,2013-03-20 10:04:00,
2013-03-20 06:10:00,25.9,17.1,29.97,West,271,8.0,8.0,69,0.00,,,0.00,0,Wunderground v.1.15,2013-03-20 10:10:00,
2013-03-20 06:16:00,25.7,17.3,29.97,West,269,6.0,11.0,70,0.00,,,0.00,0,Wunderground v.1.15,2013-03-20 10:16:00,
2013-03-20 06:21:00,25.7,17.6,29.97,West,272,6.0,12.0,71,0.00,,,0.00,0,Wunderground v.1.15,2013-03-20 10:21:00,
2013-03-20 06:27:00,25.5,17.4,29.97,West,273,9.0,12.0,71,0.00,,,0.00,0,Wunderground v.1.15,2013-03-20 10:27:00,
2013-03-20 06:33:00,25.4,17.6,29.97,West,280,8.0,11.0,72,0.00,,,0.00,0,Wunderground v.1.15,2013-03-20 10:33:00,
2013-03-20 06:38:00,25.3,18.0,29.97,WNW,302,5.0,-999.0,73,-99.99,,,0.00,,weatherlink.com 1.10,2013-03-20 10:38:00,
2013-03-20 06:43:00,25.2,17.8,29.97,NW,318,8.0,11.0,73,0.00,,,0.00,0,Wunderground v.1.15,2013-03-20 10:43:00,
2013-03-20 06:49:00,25.2,17.8,29.97,West,281,7.0,11.0,73,0.00,,,0.00,0,Wunderground v.1.15,2013-03-20 10:49:00,
2013-03-20 06:55:00,25.1,18.0,29.97,WNW,288,7.0,11.0,74,0.00,,,0.00,0,Wunderground v.1.15,2013-03-20 10:55:00,
2013-03-20 07:00:00,25.2,18.1,29.98,WSW,246,5.0,5.0,74,0.00,,,0.00,0,Wunderground v.1.15,2013-03-20 11:00:00,
2013-03-20 07:07:00,25.1,18.0,29.98,NW,306,5.0,16.0,74,0.00,,,0.00,0,Wunderground v.1.15,2013-03-20 11:07:00,
2013-03-20 07:13:00,25.1,18.0,29.98,West,268,5.0,16.0,74,0.00,,,0.00,0,Wunderground v.1.15,2013-03-20 11:13:00,
2013-03-20 07:18:00,25.1,18.3,29.98,NW,323,5.0,16.0,75,0.00,,,0.00,0,Wunderground v.1.15,2013-03-20 11:18:00,
2013-03-20 07:23:00,25.0,18.2,29.98,West,260,4.0,16.0,75,0.00,,,0.00,0,Wunderground v.1.15,2013-03-20 11:23:00,
2013-03-20 07:29:00,24.9,17.1,29.98,NW,309,5.0,16.0,72,0.00,,,0.00,0,Wunderground v.1.15,2013-03-20 11:29:00,
2013-03-20 07:35:00,24.7,16.3,29.98,West,272,7.0,16.0,70,0.00,,,0.00,0,Wunderground v.1.15,2013-03-20 11:35:00,
2013-03-20 07:41:00,24.6,15.9,29.99,WNW,294,6.0,16.0,69,0.00,,,0.00,0,Wunderground v.1.15,2013-03-20 11:41:00,
2013-03-20 07:46:00,24.6,15.5,29.99,NW,311,6.0,16.0,68,0.00,,,0.00,5,Wunderground v.1.15,2013-03-20 11:46:00,
2013-03-20 07:52:00,24.5,15.0,29.99,West,278,4.0,-999.0,68,-99.99,,,0.00,,weatherlink.com 1.10,2013-03-20 11:52:00,
2013-03-20 07:57:00,24.5,15.1,29.99,NW,310,7.0,16.0,67,0.00,,,0.00,16,Wunderground v.1.15,2013-03-20 11:57:00,
2013-03-20 08:02:00,24.5,15.4,29.99,WNW,298,6.0,16.0,68,0.00,,,0.00,21,Wunderground v.1.15,2013-03-20 12:02:00,
2013-03-20 08:08:00,24.4,15.3,29.99,WSW,254,7.0,16.0,68,0.00,,,0.00,25,Wunderground v.1.15,2013-03-20 12:08:00,
2013-03-20 08:13:00,24.3,15.3,29.99,NW,312,8.0,16.0,68,0.00,,,0.00,26,Wunderground v.1.15,2013-03-20 12:13:00,
2013-03-20 08:19:00,24.2,14.8,29.99,WNW,296,7.0,16.0,67,0.00,,,0.00,42,Wunderground v.1.15,2013-03-20 12:19:00,
2013-03-20 08:25:00,24.3,14.9,29.99,NW,309,8.0,16.0,67,0.00,,,0.00,77,Wunderground v.1.15,2013-03-20 12:25:00,
2013-03-20 08:30:00,24.3,15.3,29.99,WNW,302,7.0,7.0,68,0.00,,,0.00,51,Wunderground v.1.15,2013-03-20 12:30:00,
2013-03-20 08:35:00,24.2,15.2,30.00,NW,321,6.0,16.0,68,0.00,,,0.00,56,Wunderground v.1.15,2013-03-20 12:35:00,
2013-03-20 08:41:00,24.2,15.2,30.00,NW,313,7.0,16.0,68,0.00,,,0.00,70,Wunderground v.1.15,2013-03-20 12:41:00,
2013-03-20 08:47:00,24.0,14.3,30.00,WNW,300,7.0,16.0,66,0.00,,,0.00,100,Wunderground v.1.15,2013-03-20 12:47:00,
2013-03-20 08:52:00,24.0,14.3,30.00,WNW,298,8.0,16.0,66,0.00,,,0.00,125,Wunderground v.1.15,2013-03-20 12:52:00,
2013-03-20 08:58:00,24.0,14.3,30.00,West,281,8.0,16.0,66,0.00,,,0.00,148,Wunderground v.1.15,2013-03-20 12:58:00,
2013-03-20 09:03:00,24.0,14.3,30.00,WNW,288,8.0,15.0,66,0.00,,,0.00,174,Wunderground v.1.15,2013-03-20 13:03:00,
2013-03-20 09:08:00,24.1,14.4,30.00,NW,309,8.0,15.0,66,0.00,,,0.00,204,Wunderground v.1.15,2013-03-20 13:08:00,
2013-03-20 09:13:00,24.2,14.1,30.00,NNW,334,8.0,15.0,65,0.00,,,0.00,221,Wunderground v.1.15,2013-03-20 13:13:00,
2013-03-20 09:18:00,24.2,14.1,30.01,NW,325,10.0,15.0,65,0.00,,,0.00,144,Wunderground v.1.15,2013-03-20 13:18:00,
2013-03-20 09:24:00,24.3,13.9,30.01,West,273,11.0,15.0,64,0.00,,,0.00,135,Wunderground v.1.15,2013-03-20 13:24:00,
2013-03-20 09:29:00,24.2,13.4,30.00,West,267,11.0,15.0,63,0.00,,,0.00,135,Wunderground v.1.15,2013-03-20 13:29:00,
2013-03-20 09:36:00,24.3,13.9,30.00,NW,304,10.0,15.0,64,0.00,,,0.00,262,Wunderground v.1.15,2013-03-20 13:36:00,
2013-03-20 09:41:00,24.4,13.6,30.00,WNW,300,10.0,15.0,63,0.00,,,0.00,316,Wunderground v.1.15,2013-03-20 13:41:00,
2013-03-20 09:46:00,24.4,13.2,30.00,WSW,246,10.0,15.0,62,0.00,,,0.00,357,Wunderground v.1.15,2013-03-20 13:46:00,
2013-03-20 09:52:00,24.5,13.0,30.00,WNW,284,11.0,14.0,61,0.00,,,0.00,394,Wunderground v.1.15,2013-03-20 13:52:00,
2013-03-20 09:58:00,24.7,12.8,30.00,NW,309,12.0,15.0,60,0.00,,,0.00,450,Wunderground v.1.15,2013-03-20 13:58:00,
2013-03-20 10:03:00,25.2,13.6,30.00,WSW,257,9.0,23.0,61,0.00,,,0.00,452,Wunderground v.1.15,2013-03-20 14:03:00,
2013-03-20 10:09:00,24.6,13.1,30.01,WNW,302,10.0,23.0,61,0.00,,,0.00,149,Wunderground v.1.15,2013-03-20 14:09:00,
2013-03-20 10:14:00,24.8,13.2,30.00,NW,315,11.0,23.0,61,0.00,,,0.00,455,Wunderground v.1.15,2013-03-20 14:14:00,
2013-03-20 10:20:00,24.9,13.0,30.00,West,272,9.0,9.0,60,0.00,,,0.00,239,Wunderground v.1.15,2013-03-20 14:20:00,
2013-03-20 10:26:00,25.4,13.1,30.00,WSW,246,9.0,23.0,59,0.00,,,0.00,401,Wunderground v.1.15,2013-03-20 14:26:00,
2013-03-20 10:31:00,25.1,12.4,30.00,West,260,10.0,23.0,58,0.00,,,0.00,485,Wunderground v.1.15,2013-03-20 14:31:00,
2013-03-20 10:37:00,25.5,13.0,30.00,NW,323,5.0,-999.0,60,-99.99,,,0.00,,weatherlink.com 1.10,2013-03-20 14:37:00,
2013-03-20 10:42:00,25.4,12.7,29.99,West,261,10.0,23.0,58,0.00,,,0.00,645,Wunderground v.1.15,2013-03-20 14:42:00,
2013-03-20 10:48:00,25.3,13.0,29.99,West,261,12.0,23.0,59,0.00,,,0.00,705,Wunderground v.1.15,2013-03-20 14:48:00,
2013-03-20 10:53:00,25.1,12.4,29.99,West,265,11.0,23.0,58,0.00,,,0.00,200,Wunderground v.1.15,2013-03-20 14:53:00,
2013-03-20 10:58:00,24.8,12.5,29.99,West,269,11.0,23.0,59,0.00,,,0.00,230,Wunderground v.1.15,2013-03-20 14:58:00,
2013-03-20 11:03:00,25.5,13.5,29.99,West,265,9.0,19.0,60,0.00,,,0.00,737,Wunderground v.1.15,2013-03-20 15:03:00,
2013-03-20 11:09:00,25.8,13.0,30.00,West,275,11.0,-999.0,59,-99.99,,,0.00,,weatherlink.com 1.10,2013-03-20 15:09:00,
2013-03-20 11:14:00,25.2,12.5,30.00,West,264,10.0,19.0,58,0.00,,,0.00,251,Wunderground v.1.15,2013-03-20 15:14:00,
2013-03-20 11:20:00,25.7,13.3,30.00,NW,317,10.0,10.0,59,0.00,,,0.00,796,Wunderground v.1.15,2013-03-20 15:20:00,
2013-03-20 11:25:00,25.1,12.8,30.00,West,259,10.0,19.0,59,0.00,,,0.00,169,Wunderground v.1.15,2013-03-20 15:25:00,
2013-03-20 11:31:00,25.5,13.1,30.00,West,277,10.0,19.0,59,0.00,,,0.00,793,Wunderground v.1.15,2013-03-20 15:31:00,
2013-03-20 11:36:00,25.6,13.6,30.00,WSW,245,9.0,19.0,60,0.00,,,0.00,302,Wunderground v.1.15,2013-03-20 15:36:00,
2013-03-20 11:42:00,25.3,12.6,30.00,West,260,10.0,19.0,58,0.00,,,0.00,775,Wunderground v.1.15,2013-03-20 15:42:00,
2013-03-20 11:47:00,25.4,11.9,30.00,West,259,9.0,19.0,56,0.00,,,0.00,294,Wunderground v.1.15,2013-03-20 15:47:00,
2013-03-20 11:53:00,25.6,13.0,29.99,West,261,13.0,-999.0,58,-99.99,,,0.00,,weatherlink.com 1.10,2013-03-20 15:53:00,
2013-03-20 11:59:00,25.2,12.5,29.99,WNW,296,12.0,19.0,58,0.00,,,0.00,192,Wunderground v.1.15,2013-03-20 15:59:00,
2013-03-20 12:04:00,26.0,13.2,29.99,WSW,252,11.0,18.0,58,0.00,,,0.00,886,Wunderground v.1.15,2013-03-20 16:04:00,
2013-03-20 12:10:00,26.2,13.8,29.99,NW,325,11.0,18.0,59,0.00,,,0.00,207,Wunderground v.1.15,2013-03-20 16:10:00,
2013-03-20 12:15:00,25.7,12.2,29.99,West,261,10.0,18.0,56,0.00,,,0.00,817,Wunderground v.1.15,2013-03-20 16:15:00,
2013-03-20 12:21:00,26.9,13.7,29.99,West,266,9.0,18.0,57,0.00,,,0.00,462,Wunderground v.1.15,2013-03-20 16:21:00,
2013-03-20 12:26:00,26.7,13.1,29.99,West,269,8.0,18.0,56,0.00,,,0.00,357,Wunderground v.1.15,2013-03-20 16:26:00,
2013-03-20 12:33:00,26.1,13.3,29.99,WNW,292,10.0,18.0,58,0.00,,,0.00,819,Wunderground v.1.15,2013-03-20 16:33:00,
2013-03-20 12:39:00,26.7,13.5,30.00,NW,313,10.0,18.0,57,0.00,,,0.00,991,Wunderground v.1.15,2013-03-20 16:39:00,
2013-03-20 12:44:00,27.0,13.8,29.99,West,263,10.0,18.0,57,0.00,,,0.00,979,Wunderground v.1.15,2013-03-20 16:44:00,
2013-03-20 12:50:00,27.2,13.6,29.99,West,274,9.0,18.0,56,0.00,,,0.00,1060,Wunderground v.1.15,2013-03-20 16:50:00,
2013-03-20 12:55:00,26.9,13.7,29.99,WNW,300,8.0,18.0,57,0.00,,,0.00,297,Wunderground v.1.15,2013-03-20 16:55:00,
2013-03-20 13:00:00,26.5,12.5,29.99,WNW,302,11.0,11.0,55,0.00,,,0.00,327,Wunderground v.1.15,2013-03-20 17:00:00,
2013-03-20 13:06:00,26.5,12.1,29.99,West,268,10.0,18.0,54,0.00,,,0.00,976,Wunderground v.1.15,2013-03-20 17:06:00,
2013-03-20 13:11:00,26.9,12.5,29.98,WSW,257,11.0,18.0,54,0.00,,,0.00,962,Wunderground v.1.15,2013-03-20 17:11:00,
2013-03-20 13:17:00,27.4,12.9,29.98,WNW,287,11.0,18.0,54,0.00,,,0.00,1095,Wunderground v.1.15,2013-03-20 17:17:00,
2013-03-20 13:22:00,27.2,13.0,29.98,West,269,15.0,-999.0,55,-99.99,,,0.00,,weatherlink.com 1.10,2013-03-20 17:22:00,
2013-03-20 13:27:00,27.6,12.2,29.98,West,280,9.0,18.0,52,0.00,,,0.00,868,Wunderground v.1.15,2013-03-20 17:27:00,
2013-03-20 13:33:00,27.2,12.7,29.98,West,275,9.0,18.0,54,0.00,,,0.00,309,Wunderground v.1.15,2013-03-20 17:33:00,
2013-03-20 13:38:00,26.6,12.0,29.98,NNW,338,10.0,-999.0,54,-99.99,,,0.00,,weatherlink.com 1.10,2013-03-20 17:38:00,
2013-03-20 13:43:00,26.7,12.7,29.98,WNW,303,10.0,18.0,55,0.00,,,0.00,244,Wunderground v.1.15,2013-03-20 17:43:00,
2013-03-20 13:49:00,27.0,13.4,29.98,WSW,250,10.0,18.0,56,0.00,,,0.00,325,Wunderground v.1.15,2013-03-20 17:49:00,
2013-03-20 13:54:00,26.9,11.6,29.98,West,273,9.0,18.0,52,0.00,,,0.00,348,Wunderground v.1.15,2013-03-20 17:54:00,
2013-03-20 14:00:00,27.2,12.3,29.97,WNW,287,11.0,12.0,53,0.00,,,0.00,369,Wunderground v.1.15,2013-03-20 18:00:00,
2013-03-20 14:06:00,26.7,12.7,29.98,WSW,253,12.0,23.0,55,0.00,,,0.00,304,Wunderground v.1.15,2013-03-20 18:06:00,
2013-03-20 14:12:00,26.7,12.7,29.98,West,278,10.0,23.0,55,0.00,,,0.00,253,Wunderground v.1.15,2013-03-20 18:12:00,
2013-03-20 14:17:00,26.6,13.0,29.98,West,275,9.0,23.0,56,0.00,,,0.00,265,Wunderground v.1.15,2013-03-20 18:17:00,
2013-03-20 14:22:00,26.5,12.9,29.98,WNW,286,10.0,23.0,56,0.00,,,0.00,278,Wunderground v.1.15,2013-03-20 18:22:00,
2013-03-20 14:28:00,27.2,12.7,29.97,WNW,302,10.0,23.0,54,0.00,,,0.00,388,Wunderground v.1.15,2013-03-20 18:28:00,
2013-03-20 14:33:00,27.6,13.5,29.97,NW,309,10.0,23.0,55,0.00,,,0.00,552,Wunderground v.1.15,2013-03-20 18:33:00,
2013-03-20 14:38:00,27.0,12.5,29.97,WNW,288,10.0,23.0,54,0.00,,,0.00,306,Wunderground v.1.15,2013-03-20 18:38:00,
2013-03-20 14:44:00,26.6,12.6,29.97,West,268,12.0,23.0,55,0.00,,,0.00,334,Wunderground v.1.15,2013-03-20 18:44:00,
2013-03-20 14:49:00,27.2,12.7,29.97,NW,306,11.0,23.0,54,0.00,,,0.00,432,Wunderground v.1.15,2013-03-20 18:49:00,
2013-03-20 14:55:00,26.6,13.0,29.97,NW,306,9.0,23.0,56,0.00,,,0.00,243,Wunderground v.1.15,2013-03-20 18:55:00,
2013-03-20 15:00:00,27.0,12.5,29.97,West,263,9.0,9.0,54,0.00,,,0.00,773,Wunderground v.1.15,2013-03-20 19:00:00,
2013-03-20 15:06:00,26.7,13.5,29.96,NW,311,9.0,19.0,57,0.00,,,0.00,413,Wunderground v.1.15,2013-03-20 19:06:00,
2013-03-20 15:12:00,26.4,14.4,29.96,WNW,300,9.0,19.0,60,0.00,,,0.00,239,Wunderground v.1.15,2013-03-20 19:12:00,
2013-03-20 15:18:00,25.9,15.0,29.96,NW,322,9.0,19.0,63,0.00,,,0.00,181,Wunderground v.1.15,2013-03-20 19:18:00,
2013-03-20 15:24:00,25.9,14.3,29.96,NW,305,9.0,19.0,61,0.00,,,0.00,206,Wunderground v.1.15,2013-03-20 19:24:00,
2013-03-20 15:30:00,26.0,14.4,29.96,West,277,9.0,19.0,61,0.00,,,0.00,223,Wunderground v.1.15,2013-03-20 19:30:00,
2013-03-20 15:36:00,25.9,13.9,29.96,West,260,9.0,19.0,60,0.00,,,0.00,338,Wunderground v.1.15,2013-03-20 19:36:00,
2013-03-20 15:42:00,25.9,13.5,29.96,West,269,12.0,19.0,59,0.00,,,0.00,357,Wunderground v.1.15,2013-03-20 19:42:00,
2013-03-20 15:48:00,26.4,14.4,29.96,West,269,10.0,19.0,60,0.00,,,0.00,220,Wunderground v.1.15,2013-03-20 19:48:00,
2013-03-20 15:53:00,26.3,14.0,29.95,West,277,11.0,-999.0,59,-99.99,,,0.00,,weatherlink.com 1.10,2013-03-20 19:53:00,
2013-03-20 15:58:00,26.3,13.5,29.95,WSW,257,10.0,19.0,58,0.00,,,0.00,378,Wunderground v.1.15,2013-03-20 19:58:00,
2013-03-20 16:04:00,26.7,13.5,29.96,WSW,250,11.0,18.0,57,0.00,,,0.00,292,Wunderground v.1.15,2013-03-20 20:04:00,
2013-03-20 16:09:00,26.6,13.8,29.96,WSW,251,13.0,18.0,58,0.00,,,0.00,417,Wunderground v.1.15,2013-03-20 20:09:00,
2013-03-20 16:14:00,26.8,14.8,29.95,WNW,284,12.0,18.0,60,0.00,,,0.00,744,Wunderground v.1.15,2013-03-20 20:14:00,
2013-03-20 16:20:00,26.5,12.9,29.96,West,272,11.0,18.0,56,0.00,,,0.00,281,Wunderground v.1.15,2013-03-20 20:20:00,
2013-03-20 16:25:00,26.3,13.1,29.96,West,271,12.0,18.0,57,0.00,,,0.00,251,Wunderground v.1.15,2013-03-20 20:25:00,
2013-03-20 16:30:00,27.2,12.7,29.96,WSW,253,12.0,12.0,54,0.00,,,0.00,821,Wunderground v.1.15,2013-03-20 20:30:00,
2013-03-20 16:36:00,27.0,12.1,29.96,West,268,13.0,18.0,53,0.00,,,0.00,679,Wunderground v.1.15,2013-03-20 20:36:00,
2013-03-20 16:42:00,26.5,11.2,29.96,West,269,13.0,18.0,52,0.00,,,0.00,204,Wunderground v.1.15,2013-03-20 20:42:00,
2013-03-20 16:48:00,26.2,12.2,29.96,WSW,250,11.0,18.0,55,0.00,,,0.00,236,Wunderground v.1.15,2013-03-20 20:48:00,
2013-03-20 16:53:00,26.5,12.0,29.96,WNW,296,13.0,-999.0,54,-99.99,,,0.00,,weatherlink.com 1.10,2013-03-20 20:53:00,
2013-03-20 16:58:00,26.7,12.3,29.96,WSW,242,11.0,18.0,54,0.00,,,0.00,369,Wunderground v.1.15,2013-03-20 20:58:00,
2013-03-20 17:04:00,26.1,12.5,29.96,West,265,12.0,24.0,56,0.00,,,0.00,557,Wunderground v.1.15,2013-03-20 21:04:00,
2013-03-20 17:10:00,26.2,11.8,29.96,West,269,10.0,10.0,54,0.00,,,0.00,341,Wunderground v.1.15,2013-03-20 21:10:00,
2013-03-20 17:15:00,26.5,12.1,29.96,WNW,293,8.0,24.0,54,0.00,,,0.00,171,Wunderground v.1.15,2013-03-20 21:15:00,
2013-03-20 17:20:00,26.1,12.5,29.96,West,265,8.0,8.0,56,0.00,,,0.00,185,Wunderground v.1.15,2013-03-20 21:20:00,
2013-03-20 17:26:00,25.8,11.4,29.96,WNW,290,10.0,24.0,54,0.00,,,0.00,250,Wunderground v.1.15,2013-03-20 21:26:00,
2013-03-20 17:32:00,25.8,11.0,29.95,WNW,287,11.0,24.0,53,0.00,,,0.00,128,Wunderground v.1.15,2013-03-20 21:32:00,
2013-03-20 17:37:00,25.8,12.0,29.96,West,267,6.0,-999.0,55,-99.99,,,0.00,,weatherlink.com 1.10,2013-03-20 21:37:00,
2013-03-20 17:42:00,25.7,12.2,29.96,West,265,9.0,24.0,56,0.00,,,0.00,322,Wunderground v.1.15,2013-03-20 21:42:00,
2013-03-20 17:47:00,26.5,12.5,29.95,West,265,9.0,24.0,55,0.00,,,0.00,211,Wunderground v.1.15,2013-03-20 21:47:00,
2013-03-20 17:53:00,26.3,11.0,29.96,West,260,9.0,24.0,52,0.00,,,0.00,202,Wunderground v.1.15,2013-03-20 21:53:00,
2013-03-20 17:59:00,26.0,11.2,29.96,West,278,11.0,24.0,53,0.00,,,0.00,239,Wunderground v.1.15,2013-03-20 21:59:00,
2013-03-20 18:05:00,26.0,11.2,29.96,West,265,10.0,20.0,53,0.00,,,0.00,237,Wunderground v.1.15,2013-03-20 22:05:00,
2013-03-20 18:11:00,26.2,10.5,29.95,WNW,293,12.0,12.0,51,0.00,,,0.00,320,Wunderground v.1.15,2013-03-20 22:11:00,
2013-03-20 18:17:00,26.6,10.9,29.96,West,277,12.0,20.0,51,0.00,,,0.00,309,Wunderground v.1.15,2013-03-20 22:17:00,
2013-03-20 18:22:00,26.4,10.7,29.96,West,277,12.0,20.0,51,0.00,,,0.00,274,Wunderground v.1.15,2013-03-20 22:22:00,
2013-03-20 18:27:00,26.2,10.5,29.96,West,280,11.0,20.0,51,0.00,,,0.00,95,Wunderground v.1.15,2013-03-20 22:27:00,
2013-03-20 18:33:00,26.4,10.7,29.96,SW,230,10.0,20.0,51,0.00,,,0.00,285,Wunderground v.1.15,2013-03-20 22:33:00,
2013-03-20 18:39:00,26.1,11.0,29.97,NNW,333,9.0,-999.0,52,-99.99,,,0.00,,weatherlink.com 1.10,2013-03-20 22:39:00,
2013-03-20 18:44:00,25.7,10.9,29.97,West,277,10.0,20.0,53,0.00,,,0.00,169,Wunderground v.1.15,2013-03-20 22:44:00,
2013-03-20 18:50:00,25.6,10.8,29.97,WSW,249,9.0,9.0,53,0.00,,,0.00,86,Wunderground v.1.15,2013-03-20 22:50:00,
2013-03-20 18:55:00,25.2,11.3,29.97,WNW,302,9.0,20.0,55,0.00,,,0.00,67,Wunderground v.1.15,2013-03-20 22:55:00,
2013-03-20 19:00:00,25.3,11.4,29.97,WSW,241,9.0,14.0,55,0.00,,,0.00,141,Wunderground v.1.15,2013-03-20 23:00:00,
2013-03-20 19:06:00,25.1,11.2,29.97,WSW,246,9.0,20.0,55,0.00,,,0.00,77,Wunderground v.1.15,2013-03-20 23:06:00,
2013-03-20 19:12:00,25.1,11.2,29.97,WNW,284,10.0,20.0,55,0.00,,,0.00,83,Wunderground v.1.15,2013-03-20 23:12:00,
2013-03-20 19:17:00,25.4,11.0,29.98,NW,325,8.0,20.0,54,0.00,,,0.00,90,Wunderground v.1.15,2013-03-20 23:17:00,
2013-03-20 19:23:00,24.9,10.2,29.98,West,263,8.0,20.0,53,0.00,,,0.00,37,Wunderground v.1.15,2013-03-20 23:23:00,
2013-03-20 19:28:00,24.8,10.5,29.98,NW,323,7.0,20.0,54,0.00,,,0.00,37,Wunderground v.1.15,2013-03-20 23:28:00,
2013-03-20 19:34:00,24.5,10.2,29.98,WNW,298,6.0,20.0,54,0.00,,,0.00,12,Wunderground v.1.15,2013-03-20 23:34:00,
2013-03-20 19:39:00,24.4,10.5,29.98,NW,321,7.0,20.0,55,0.00,,,0.00,9,Wunderground v.1.15,2013-03-20 23:39:00,
2013-03-20 19:45:00,24.2,10.7,29.98,NNW,330,5.0,20.0,56,0.00,,,0.00,5,Wunderground v.1.15,2013-03-20 23:45:00,
2013-03-20 19:51:00,23.9,10.5,29.99,NNW,329,7.0,20.0,56,0.00,,,0.00,5,Wunderground v.1.15,2013-03-20 23:51:00,
2013-03-20 19:56:00,23.6,10.6,29.98,WNW,296,9.0,20.0,57,0.00,,,0.00,0,Wunderground v.1.15,2013-03-20 23:56:00,
2013-03-20 20:02:00,23.4,10.8,29.99,NW,309,7.0,16.0,58,0.00,,,0.00,0,Wunderground v.1.15,2013-03-21 00:02:00,
2013-03-20 20:07:00,23.3,11.1,29.99,WNW,283,6.0,16.0,59,0.00,,,0.00,0,Wunderground v.1.15,2013-03-21 00:07:00,
2013-03-20 20:12:00,23.1,10.9,29.99,NNW,334,6.0,16.0,59,0.00,,,0.00,0,Wunderground v.1.15,2013-03-21 00:12:00,
2013-03-20 20:18:00,22.9,11.1,29.99,NW,308,7.0,16.0,60,0.00,,,0.00,0,Wunderground v.1.15,2013-03-21 00:18:00,
2013-03-20 20:23:00,22.5,11.0,29.99,NNW,333,4.0,-999.0,62,-99.99,,,0.00,,weatherlink.com 1.10,2013-03-21 00:23:00,
2013-03-20 20:28:00,22.4,11.7,29.99,NNW,330,6.0,16.0,63,0.00,,,0.00,0,Wunderground v.1.15,2013-03-21 00:28:00,
2013-03-20 20:33:00,22.4,11.0,29.99,NW,311,5.0,16.0,61,0.00,,,0.00,0,Wunderground v.1.15,2013-03-21 00:33:00,
2013-03-20 20:38:00,22.4,10.0,29.99,NNW,329,10.0,-999.0,59,-99.99,,,0.00,,weatherlink.com 1.10,2013-03-21 00:38:00,
2013-03-20 20:43:00,22.2,10.4,29.99,NNW,328,7.0,16.0,60,0.00,,,0.00,0,Wunderground v.1.15,2013-03-21 00:43:00,
2013-03-20 20:49:00,22.1,10.3,29.99,NW,316,6.0,16.0,60,0.00,,,0.00,0,Wunderground v.1.15,2013-03-21 00:49:00,
2013-03-20 20:55:00,22.0,10.6,30.00,WNW,296,6.0,16.0,61,0.00,,,0.00,0,Wunderground v.1.15,2013-03-21 00:55:00,
2013-03-20 21:00:00,22.0,10.6,30.00,WNW,302,5.0,5.0,61,0.00,,,0.00,0,Wunderground v.1.15,2013-03-21 01:00:00,
2013-03-20 21:06:00,22.0,10.6,30.00,WNW,288,4.0,16.0,61,0.00,,,0.00,0,Wunderground v.1.15,2013-03-21 01:06:00,
2013-03-20 21:12:00,21.9,10.9,30.00,North,355,5.0,16.0,62,0.00,,,0.00,0,Wunderground v.1.15,2013-03-21 01:12:00,
2013-03-20 21:18:00,21.8,10.4,30.00,NNW,332,4.0,16.0,61,0.00,,,0.00,0,Wunderground v.1.15,2013-03-21 01:18:00,
2013-03-20 21:24:00,21.6,10.0,30.00,NNW,329,3.0,-999.0,61,-99.99,,,0.00,,weatherlink.com 1.10,2013-03-21 01:24:00,
2013-03-20 21:30:00,21.3,9.9,30.00,WNW,298,7.0,7.0,61,0.00,,,0.00,0,Wunderground v.1.15,2013-03-21 01:30:00,
2013-03-20 21:36:00,21.2,10.6,29.99,WNW,298,5.0,16.0,63,0.00,,,0.00,0,Wunderground v.1.15,2013-03-21 01:36:00,
2013-03-20 21:41:00,21.1,10.5,30.00,NW,321,4.0,16.0,63,0.00,,,0.00,0,Wunderground v.1.15,2013-03-21 01:41:00,
2013-03-20 21:47:00,21.0,10.4,29.99,NW,326,3.0,16.0,63,0.00,,,0.00,0,Wunderground v.1.15,2013-03-21 01:47:00,
2013-03-20 21:53:00,21.0,10.4,30.00,NW,306,4.0,16.0,63,0.00,,,0.00,0,Wunderground v.1.15,2013-03-21 01:53:00,
2013-03-20 21:58:00,21.1,10.1,30.00,NW,314,4.0,16.0,62,0.00,,,0.00,0,Wunderground v.1.15,2013-03-21 01:58:00,
2013-03-20 22:03:00,21.0,10.4,30.00,WNW,295,4.0,17.0,63,0.00,,,0.00,0,Wunderground v.1.15,2013-03-21 02:03:00,
2013-03-20 22:09:00,20.9,10.6,30.00,WNW,289,3.0,17.0,64,0.00,,,0.00,0,Wunderground v.1.15,2013-03-21 02:09:00,
2013-03-20 22:15:00,20.9,10.6,30.00,NW,315,2.0,17.0,64,0.00,,,0.00,0,Wunderground v.1.15,2013-03-21 02:15:00,
2013-03-20 22:20:00,20.9,10.6,30.00,NW,309,4.0,4.0,64,0.00,,,0.00,0,Wunderground v.1.15,2013-03-21 02:20:00,
2013-03-20 22:25:00,20.9,10.6,30.00,WNW,287,4.0,17.0,64,0.00,,,0.00,0,Wunderground v.1.15,2013-03-21 02:25:00,
2013-03-20 22:30:00,20.9,10.6,30.00,NW,316,4.0,4.0,64,0.00,,,0.00,0,Wunderground v.1.15,2013-03-21 02:30:00,
2013-03-20 22:36:00,20.9,10.6,30.00,NW,325,3.0,17.0,64,0.00,,,0.00,0,Wunderground v.1.15,2013-03-21 02:36:00,
2013-03-20 22:41:00,20.8,10.9,29.99,NNW,333,3.0,17.0,65,0.00,,,0.00,0,Wunderground v.1.15,2013-03-21 02:41:00,
2013-03-20 22:47:00,20.7,11.1,29.99,North,5,3.0,17.0,66,0.00,,,0.00,0,Wunderground v.1.15,2013-03-21 02:47:00,
2013-03-20 22:53:00,20.6,11.0,30.00,NNW,329,5.0,-999.0,66,-99.99,,,0.00,,weatherlink.com 1.10,2013-03-21 02:53:00,
2013-03-20 22:59:00,20.4,11.2,30.00,North,355,3.0,17.0,67,0.00,,,0.00,0,Wunderground v.1.15,2013-03-21 02:59:00,
2013-03-20 23:05:00,20.2,11.3,30.00,NNW,342,2.0,10.0,68,0.00,,,0.00,0,Wunderground v.1.15,2013-03-21 03:05:00,
2013-03-20 23:11:00,20.2,11.7,30.00,NNW,328,3.0,10.0,69,0.00,,,0.00,0,Wunderground v.1.15,2013-03-21 03:11:00,
2013-03-20 23:17:00,20.1,11.9,30.00,NW,321,4.0,10.0,70,0.00,,,0.00,0,Wunderground v.1.15,2013-03-21 03:17:00,
2013-03-20 23:23:00,20.0,12.1,30.00,NNW,327,3.0,10.0,71,0.00,,,0.00,0,Wunderground v.1.15,2013-03-21 03:23:00,
2013-03-20 23:28:00,20.0,12.4,30.00,North,355,2.0,10.0,72,0.00,,,0.00,0,Wunderground v.1.15,2013-03-21 03:28:00,
2013-03-20 23:34:00,20.0,12.7,29.99,West,275,3.0,10.0,73,0.00,,,0.00,0,Wunderground v.1.15,2013-03-21 03:34:00,
2013-03-20 23:39:00,20.0,13.0,29.99,NNW,334,4.0,10.0,74,0.00,,,0.00,0,Wunderground v.1.15,2013-03-21 03:39:00,
2013-03-20 23:44:00,19.9,12.9,29.99,WNW,300,4.0,10.0,74,0.00,,,0.00,0,Wunderground v.1.15,2013-03-21 03:44:00,
2013-03-20 23:49:00,19.9,13.3,29.99,NW,322,4.0,10.0,75,0.00,,,0.00,0,Wunderground v.1.15,2013-03-21 03:49:00,
2013-03-20 23:55:00,19.9,13.6,29.99,NNW,338,3.0,10.0,76,0.00,,,0.00,0,Wunderground v.1.15,2013-03-21 03:55:00,